Lapse_Rate
8.1 7.9 7.7 8.1 8.8 8.4 8.3 8.5 8.1 8.4 8.1 7.5 7.6 7.9 8.1 6.8 6.6 6.6 6.3 6.2 6.0 5.8 5.6 5.4 5.2 5.3 5.3 5.2 5.2 5.3 5.2 5.5 5.7 5.6 5.5 5.5 5.9 6.0 6.1 5.8 6.0 6.0 6.1 6.1
7.7 7.7 8.5 8.2 8.1 7.5 8.0 8.1 7.8 8.3 8.1 7.8 7.4 8.0 8.2 8.0 7.2 6.7 6.4 6.4 6.3 6.5 6.0 5.8 5.5 5.4 5.6 5.4 5.3 5.5 5.5 5.5 5.7 5.6 5.5 5.8 6.1 6.1 6.1 6.2 6.5 6.5 6.5 6.3
7.5 8.2 8.6 8.3 8.2 8.4 8.2 7.9 8.2 8.5 8.6 7.8 7.3 7.2 7.1 7.8 7.0 6.6 6.4 6.4 6.5 6.5 6.3 6.2 6.0 5.9 5.8 5.8 5.7 5.7 5.5 5.7 5.7 5.6 5.7 6.1 6.3 6.4 6.5 6.5 6.7 6.7 6.5 6.3
7.5 8.4 8.6 8.1 8.0 8.3 8.4 8.8 8.8 8.7 8.3 8.0 7.8 7.3 7.3 7.5 7.0 6.7 6.9 7.2 6.8 6.9 6.5 6.1 6.3 6.5 6.3 6.2 6.0 5.9 5.8 5.8 5.9 6.2 6.2 6.3 6.3 6.4 6.7 6.9 6.8 6.7 6.5 6.9
7.1 8.4 8.6 8.2 8.3 8.2 8.6 8.6 8.7 8.7 8.0 8.0 8.1 7.9 8.5 7.4 6.8 7.0 7.0 7.3 7.0 7.1 6.8 6.5 6.5 6.5 6.6 6.5 6.3 6.2 6.2 6.3 6.4 6.4 6.4 6.5 6.5 6.7 7.0 6.9 7.0 6.9 7.0 6.9
7.5 8.2 8.6 8.3 9.0 8.4 9.2 8.8 9.0 9.0 8.2 7.6 8.0 8.3 8.0 7.7 8.4 7.5 7.4 7.3 7.2 7.0 6.8 6.5 6.5 6.7 6.7 6.6 6.5 6.4 6.5 6.6 6.5 6.6 6.7 6.8 6.7 6.7 6.8 7.0 7.1 7.0 7.0 6.9
7.2 7.8 8.3 8.5 8.9 9.3 9.0 8.8 8.7 8.3 7.6 7.5 9.0 8.5 8.7 8.9 8.6 8.4 7.7 7.5 6.9 7.0 6.8 6.7 6.8 6.9 6.8 6.6 6.6 6.5 6.4 6.4 6.6 6.8 6.9 7.0 7.0 6.9 6.9 7.1 7.2 7.0 7.0 6.8
7.1 7.4 7.7 8.6 8.3 9.0 9.3 8.5 9.5 7.6 6.7 8.2 9.1 9.0 9.2 9.2 9.1 8.4 8.0 7.8 7.1 7.0 6.9 7.0 7.0 6.9 6.8 6.8 6.7 6.7 6.8 6.7 6.8 6.8 7.0 7.1 7.2 7.2 7.2 7.3 7.3 7.3 7.1 6.9
7.0 7.0 8.2 8.4 8.4 9.0 9.3 8.6 9.9 9.1 8.4 9.0 9.1 9.3 9.4 9.3 8.8 8.3 8.0 7.8 7.5 7.3 7.0 6.8 6.8 6.9 6.9 7.0 6.9 6.8 6.8 6.8 6.9 7.0 7.1 7.3 7.5 7.7 7.6 7.8 7.7 7.5 7.4 7.5
7.4 7.4 8.0 8.5 8.7 8.9 9.1 9.3 9.5 8.8 7.8 8.1 9.0 9.3 9.3 8.9 8.5 8.4 8.2 8.2 8.1 7.5 7.6 7.1 6.9 7.1 6.9 6.7 6.7 6.7 6.8 6.9 7.1 7.3 7.4 7.7 8.1 8.3 8.3 8.1 8.1 7.8 7.6 7.6
7.4 7.5 8.3 8.5 8.4 8.6 9.0 9.2 9.5 9.2 9.1 7.5 7.2 8.9 9.6 9.3 8.9 8.8 8.7 8.4 8.6 8.2 7.5 7.6 7.5 7.5 7.2 6.9 6.9 7.0 7.2 7.3 7.4 7.5 7.8 8.3 8.6 8.5 8.7 8.5 8.3 7.9 7.8 8.0
7.3 7.5 8.0 8.3 8.5 8.5 9.1 9.3 9.5 9.5 8.7 9.1 9.0 9.2 9.4 9.6 9.3 8.9 9.1 8.8 8.5 8.6 8.1 7.8 7.8 7.6 7.7 7.8 7.7 7.5 7.2 7.3 7.6 7.8 8.2 8.6 8.8 8.7 8.7 8.6 8.3 7.9 8.0 8.0
7.5 7.3 7.9 8.4 8.9 8.8 9.1 9.3 9.5 9.5 9.1 9.1 8.4 8.8 9.6 9.6 9.2 9.1 9.2 9.0 8.9 8.8 8.5 8.3 8.0 8.0 8.0 8.0 7.8 7.6 7.6 7.6 7.7 8.1 8.5 8.8 8.8 8.9 8.7 8.3 8.1 8.1 8.1 8.2
8.0 7.7 7.2 7.9 8.0 8.6 8.8 9.0 9.0 9.2 8.9 8.8 8.8 9.0 9.4 9.3 9.1 9.1 9.4 9.2 9.1 8.8 8.6 8.6 8.4 8.7 8.6 8.4 8.3 8.5 8.3 8.1 8.2 8.6 8.9 9.0 8.9 8.8 8.5 8.2 8.3 8.3 8.2 8.2
8.5 7.9 7.8 7.9 8.6 8.7 9.0 9.1 9.1 8.9 8.8 8.7 8.8 9.0 9.2 9.2 9.3 9.3 9.5 9.3 9.0 8.9 9.0 8.7 8.4 8.4 8.5 8.3 8.3 8.5 8.7 8.7 9.0 9.1 9.2 9.1 8.9 8.7 8.5 8.4 8.3 8.1 8.2 7.9
8.6 7.9 8.2 8.2 8.6 8.5 8.6 9.2 9.4 9.1 8.9 8.6 8.8 9.0 9.1 9.4 9.4 9.4 9.4 9.3 9.1 9.2 9.2 8.9 8.6 8.4 8.4 8.3 8.3 8.5 8.7 8.9 9.2 9.5 9.5 9.3 8.8 8.6 8.6 8.4 8.1 8.1 8.0 7.9
8.4 8.3 8.3 8.2 8.7 8.6 8.3 8.5 9.0 9.3 9.0 8.6 8.8 8.9 9.4 9.4 9.5 9.5 9.5 9.5 9.5 9.5 9.4 8.6 8.4 8.3 8.1 8.1 8.1 8.3 8.7 8.7 9.1 9.3 9.4 9.1 8.7 8.5 8.4 8.2 8.0 8.0 7.7 7.8
7.4 8.7 8.5 8.4 8.5 7.4 8.0 8.6 8.4 8.6 9.2 9.1 8.8 9.1 9.3 9.5 9.5 9.6 9.5 9.5 9.4 9.4 9.3 8.7 8.7 8.4 8.2 8.0 7.9 7.9 8.2 8.6 9.0 9.1 9.2 8.9 8.7 8.5 8.3 7.9 7.8 7.8 7.6 7.7
6.8 8.1 8.6 8.5 8.4 8.1 8.4 8.9 8.8 8.6 8.9 9.4 8.7 9.0 9.2 9.5 9.6 9.7 9.6 9.6 9.6 9.3 9.2 8.6 8.6 8.5 8.3 8.2 8.0 7.9 7.9 8.5 9.0 9.0 9.0 8.8 8.8 8.5 8.2 7.7 7.8 7.7 7.5 7.6
8.0 8.6 8.6 8.8 8.4 7.5 8.2 8.8 9.0 8.8 8.4 9.4 9.0 9.1 9.2 9.4 9.6 9.8 9.7 9.2 9.1 9.5 9.3 9.0 8.4 8.3 8.5 8.5 8.3 8.2 8.2 8.6 9.0 9.0 8.9 8.9 8.8 8.4 8.1 7.5 7.8 7.7 7.5 7.6
8.7 8.9 8.7 9.1 8.5 8.6 8.5 8.8 9.0 8.9 8.5 9.0 9.2 9.1 9.3 9.4 9.5 9.6 9.6 9.5 9.5 9.5 9.3 9.3 8.8 8.1 8.4 8.5 8.5 8.4 8.2 8.5 8.8 9.0 9.0 8.9 8.6 8.3 7.7 7.7 7.7 7.7 7.5 7.6
9.0 8.7 8.5 9.2 8.8 8.6 8.7 8.8 8.9 8.8 9.2 9.0 9.0 9.1 9.2 9.4 9.5 9.6 9.7 9.6 9.4 9.3 9.2 9.1 9.2 9.0 8.3 8.5 8.6 8.3 8.1 8.4 8.9 9.0 8.9 8.7 8.4 8.0 7.7 7.6 7.6 7.5 7.4 7.5
9.0 9.0 8.8 8.6 8.2 8.6 8.7 8.7 8.7 8.8 9.0 9.2 8.7 9.1 8.8 9.1 9.3 9.3 9.6 9.4 9.0 8.9 8.9 8.9 8.9 8.9 8.4 8.6 8.9 8.7 8.5 8.8 9.1 9.0 8.8 8.6 8.1 7.7 7.6 7.6 7.4 7.3 7.2 7.4
8.5 8.7 9.2 9.3 9.3 9.1 8.7 8.7 8.5 8.6 8.9 9.0 9.0 9.1 9.0 8.8 8.8 8.8 8.7 8.7 8.7 8.7 8.8 8.8 8.8 8.5 8.3 8.6 8.8 8.8 8.7 9.0 9.1 9.0 8.8 8.4 8.0 7.7 7.3 7.2 7.1 7.1 7.2 7.2
6.9 8.3 8.6 9.3 9.3 9.1 8.8 8.5 8.5 8.6 8.7 8.9 9.0 9.1 9.3 9.1 8.7 8.8 8.8 8.7 8.6 8.6 8.5 8.5 8.5 8.5 8.6 8.6 8.7 8.7 8.7 8.8 8.9 8.8 8.6 8.3 7.9 7.3 6.9 7.0 7.0 7.1 7.2 7.2
6.5 7.1 8.1 8.8 9.2 9.3 9.2 8.4 8.4 8.4 8.4 8.8 8.9 8.9 9.0 9.2 9.2 9.2 8.9 8.6 8.4 8.6 8.6 8.7 8.7 8.6 8.3 8.3 8.4 8.6 8.6 8.8 8.8 8.7 8.5 8.0 7.4 6.9 6.8 6.8 6.9 7.1 7.1 7.1
Wind_Speed
4 4 7 10 9 8 8 5 5 4 2 4 2 13 21 18 15 16 15 14 14 15 15 13 15 14 11 10 10 12 9 8 4 2 2 1 3 3 3 7 13 13 11 6
2 7 12 9 11 6 12 8 5 5 7 4 7 11 17 20 20 21 20 18 18 15 14 14 13 14 12 11 12 11 10 9 8 4 3 3 3 4 4 4 9 5 8 8
8 8 6 8 5 6 1 4 4 6 4 5 10 3 14 18 17 16 17 17 17 18 16 15 13 12 12 12 12 12 11 12 12 8 3 1 1 2 2 3 4 4 9 14
7 10 11 9 12 10 6 9 9 7 2 4 8 4 12 17 19 18 18 17 18 18 17 16 17 15 13 14 12 12 11 12 9 10 7 6 4 4 4 3 3 5 12 10
10 10 12 14 11 21 16 8 15 15 10 2 5 4 6 10 15 19 19 20 18 20 20 20 19 18 17 15 14 12 13 13 10 11 10 7 6 4 4 4 5 4 6 4
13 4 9 14 12 17 7 8 15 6 4 7 16 6 4 12 21 22 20 20 19 18 20 20 20 17 16 15 13 13 14 14 12 10 9 10 9 6 4 4 5 4 3 1
5 13 14 6 7 6 14 13 4 3 2 7 9 4 9 23 16 24 24 22 20 19 19 18 18 17 16 17 15 13 15 16 12 12 11 11 10 8 8 7 5 5 3 1
10 9 19 7 11 9 8 19 6 7 5 5 6 7 10 27 22 23 25 27 21 20 19 20 20 19 19 20 18 17 15 15 12 12 13 10 9 7 6 6 4 4 3 3
8 9 6 13 12 10 8 3 8 7 2 3 4 6 6 17 20 20 20 19 20 21 20 21 20 19 18 18 18 18 15 15 13 14 11 10 10 9 8 7 6 4 5 4
5 2 7 7 7 9 8 5 3 3 3 2 5 5 4 10 20 20 20 23 21 20 20 19 19 20 17 18 16 15 15 16 13 13 11 10 11 9 7 6 7 6 4 4
6 4 7 5 8 15 1 3 4 6 5 6 2 6 8 17 19 23 24 25 23 23 21 20 20 18 18 17 15 15 14 14 13 13 12 11 10 8 7 7 6 5 5 5
11 5 7 12 3 10 9 12 8 5 4 2 5 6 6 14 16 19 23 23 23 24 22 20 19 18 18 19 17 17 16 16 15 15 13 12 9 8 7 6 5 6 6 6
12 8 1 6 7 4 6 6 6 6 4 6 5 7 3 8 15 22 23 22 22 23 20 18 16 16 17 18 17 17 16 17 15 14 13 10 8 7 6 6 6 6 7 9
17 5 17 10 8 5 4 7 7 8 5 6 7 9 13 6 12 10 20 24 21 21 21 19 16 17 18 17 17 16 15 15 14 12 11 9 8 8 7 7 7 8 10 11
17 16 9 21 15 6 5 8 9 7 7 7 9 8 12 5 11 16 19 19 20 19 18 19 19 17 16 15 14 14 12 13 13 12 12 9 8 8 8 8 11 9 10 9
9 10 10 16 11 6 11 10 17 12 6 8 8 8 8 6 1 8 16 20 20 19 21 22 21 15 16 17 16 14 12 14 13 12 11 11 11 11 11 11 9 11 10 10
6 17 9 16 15 11 7 8 13 13 13 13 11 12 5 6 9 14 10 13 20 20 20 19 18 16 16 17 16 15 12 12 12 12 12 13 12 13 13 11 10 9 10 9
7 19 9 12 6 12 9 8 10 21 21 9 7 8 10 11 12 8 8 12 12 14 16 16 14 12 10 10 11 10 12 13 14 14 13 12 13 13 11 10 9 8 8 10
17 8 4 9 13 3 5 5 7 9 15 9 12 8 9 10 3 5 12 10 18 16 16 17 17 15 12 14 14 14 13 13 14 14 13 13 14 13 11 10 9 7 8 6
10 19 7 5 14 15 8 6 5 6 4 5 10 10 10 6 5 6 9 8 12 13 14 13 12 14 15 14 15 16 14 14 14 13 13 13 13 12 11 9 8 5 5 6
5 12 16 6 10 5 7 9 6 7 8 5 8 10 8 7 8 9 8 8 6 11 12 13 15 15 14 14 16 15 14 13 11 13 13 12 11 11 10 8 5 6 6 6
6 6 6 2 5 5 8 6 16 10 6 5 5 8 10 9 7 8 12 13 15 15 14 13 14 13 14 15 16 15 13 12 14 14 13 11 10 9 7 9 5 7 7 6
2 6 7 8 7 7 4 8 4 5 6 6 5 5 10 10 8 9 10 15 14 17 14 13 15 16 13 13 17 16 13 15 15 14 12 10 10 9 8 8 7 5 5 5
8 5 4 5 3 4 10 7 5 3 4 7 8 9 10 10 10 9 9 11 14 15 16 14 17 16 14 12 12 19 16 16 15 15 12 10 10 8 6 4 4 4 4 4
5 10 7 1 2 8 7 7 3 5 5 4 7 6 11 15 9 14 11 13 14 14 14 15 16 16 14 13 14 17 18 17 14 14 11 10 8 8 7 6 4 4 4 4
4 4 4 4 6 6 3 3 5 8 2 4 7 4 2 10 16 12 13 13 14 16 14 14 14 15 14 14 15 16 15 16 16 12 9 8 8 7 7 7 6 11 9 11
Wind_Direction
274 129 208 194 208 178 147 213 149 279 211 129 200 151 175 182 182 188 185 186 195 199 196 187 186 189 186 186 183 187 179 196 166 160 170 212 239 267 299 288 292 254 235 252
323 219 216 192 211 198 179 187 211 216 250 102 122 170 187 180 195 192 189 189 196 198 188 191 185 187 190 186 193 188 189 185 197 188 172 166 197 246 244 265 281 263 251 262
189 234 168 184 145 214 184 192 202 196 126 137 127 195 197 203 195 198 201 200 196 191 190 191 190 192 192 192 190 191 190 189 199 189 155 173 349 333 297 266 280 261 243 250
225 232 228 209 170 172 221 224 230 249 104 246 151 245 209 199 200 198 202 202 203 195 193 190 195 196 197 202 196 192 194 192 194 180 175 176 182 215 238 236 251 288 307 265
225 181 209 230 201 181 222 199 220 235 235 20 209 134 249 157 204 203 201 203 204 194 188 192 195 197 200 195 195 194 192 198 196 191 190 185 198 220 253 274 283 291 286 254
225 237 199 220 224 187 172 193 247 267 175 202 207 151 260 191 201 197 197 201 198 185 189 192 194 192 199 198 191 191 191 200 197 189 190 190 196 199 225 264 264 262 292 283
241 246 254 211 203 159 203 196 239 234 169 215 167 141 224 209 195 191 188 196 197 186 183 187 190 195 196 200 198 194 194 203 195 193 196 203 206 196 214 234 253 274 282 252
195 240 227 208 190 181 183 217 181 224 212 258 141 212 247 193 183 187 190 188 186 184 184 184 186 192 198 200 203 199 194 202 195 195 205 205 204 208 209 206 218 239 245 240
168 232 249 221 229 143 229 191 197 138 36 51 246 300 336 167 179 183 184 183 185 184 187 188 191 192 191 193 195 195 191 199 197 200 202 202 203 205 206 204 219 229 252 243
216 217 236 254 189 225 164 218 236 21 134 223 314 298 203 176 180 185 181 190 190 188 187 190 190 194 197 198 195 188 189 193 194 195 199 203 203 198 199 197 216 214 207 148
170 104 262 253 198 220 166 219 37 118 135 164 207 273 201 186 187 181 188 192 186 187 190 191 194 195 191 192 190 190 186 187 190 193 198 201 198 189 194 202 212 210 164 158
191 165 233 229 242 201 181 200 167 127 230 152 164 260 268 176 182 197 190 191 190 191 191 191 194 190 187 192 188 190 187 190 193 194 194 199 187 186 194 202 191 169 155 124
180 194 33 325 305 285 187 188 150 117 97 186 152 259 126 235 186 194 185 192 192 193 191 192 188 191 194 194 193 192 190 196 193 188 189 184 179 177 183 179 165 144 117 99
178 161 207 202 223 156 175 194 168 138 136 165 208 270 291 259 189 172 189 189 189 190 189 189 192 195 193 195 192 189 191 193 187 182 178 172 173 174 167 163 120 109 105 108
179 209 179 223 236 239 210 188 190 169 176 161 237 211 260 237 205 174 185 183 185 187 188 191 195 195 192 190 194 193 185 185 178 175 172 162 148 140 122 100 115 115 111 117
186 203 164 220 224 213 222 236 203 196 162 199 161 233 217 280 218 132 169 177 181 185 189 193 198 187 187 187 188 185 177 178 170 166 149 139 137 129 117 121 127 119 116 116
224 199 163 216 214 238 259 215 222 212 204 184 209 220 155 194 267 166 174 169 179 186 187 189 187 183 183 186 180 181 167 156 155 141 138 138 134 128 133 135 129 120 124 123
264 204 178 205 99 225 241 206 219 220 212 199 201 199 183 211 200 199 182 163 165 167 175 182 176 174 171 161 157 139 140 140 138 136 136 134 134 133 135 133 127 121 127 131
200 204 150 173 201 268 216 221 178 166 230 206 200 195 204 194 74 253 175 175 172 174 174 172 173 160 142 144 139 131 129 132 133 138 137 139 138 137 140 137 132 131 126 126
185 192 168 146 212 211 214 206 147 90 274 252 208 182 196 143 145 243 193 163 180 163 157 147 141 139 134 139 135 131 133 133 137 139 139 136 137 140 141 136 133 128 142 141
105 183 191 172 206 266 229 162 121 128 232 283 205 179 175 172 189 209 153 120 164 145 137 136 140 144 138 136 131 128 133 139 135 129 128 131 138 138 133 123 126 135 127 121
148 136 171 103 133 208 166 95 185 207 251 251 290 158 166 177 160 172 146 135 135 131 135 142 135 136 141 141 132 136 139 136 132 129 130 133 131 134 130 124 127 129 129 130
110 176 168 165 204 230 113 138 151 140 186 210 204 184 150 139 139 151 135 136 141 142 143 144 140 137 143 151 146 136 140 136 134 133 134 135 129 127 128 128 136 130 136 136
316 27 102 100 309 121 103 96 111 116 221 204 191 159 165 156 147 135 125 129 138 145 146 144 142 142 146 152 150 133 139 139 139 135 135 134 129 124 112 101 113 121 145 139
262 337 329 66 273 99 51 95 94 69 357 96 144 196 157 146 155 148 148 147 149 147 146 149 148 148 145 139 138 137 141 140 138 135 135 134 130 120 104 73 82 107 70 132
9 341 9 277 254 129 158 108 78 74 57 96 107 104 119 141 151 148 151 152 149 148 145 141 143 136 140 137 141 141 143 142 138 140 140 143 131 121 120 117 90 60 90 83